Location: Alfortville
(48.8058°N, 2.4204°E)
Time: 12:07:17
(UTC+00:00)

Meteor 1-19 Rocket - Pass Details

Date: 15 December 2023
Orbit: 806 x 928 km, 81.2° (Epoch: 01 March)

Event Time Altitude Azimuth Distance (km) Brightness Sun altitude
Rises 18:34:18 0° 185° (S) 3,519 7.6 -25.2°
Reaches altitude 10° 18:36:44 10° 184° (S) 2,595 6.8 -25.6°
Maximum altitude 18:42:40 78° 99° (E) 949 4.2 -26.5°
Enters shadow 18:43:45 61° 31° (NNE) 1,049 4.4 -26.7°
